Погода в Периволиях

Кипр     34°49′50″N   33°34′50″E
темп.,
°C
ветер,
м/с
пор.,
м/с
влажн.,
%
обл.,
%
осадки,
мм/ч
давл.,
гПа
погр.,
м
15 апреля, чт
чт1500:00+15ссв446615 0.0 1019155
03:00+15ссв336639 0.0 1018130
06:00+14ссв33696 0.0 1018138
09:00+17св22637 0.0 1019272
12:00+18юв32625 0.0 1019381
15:00+19ю22592 0.0 1018316
18:00+18ю225893 0.0 1017201
21:00+17з1168100 0.0 101738
16 апреля, пт
пт1600:00+17св2265100 0.0 101729
03:00+17св3365100 0.0 101645
06:00+17св3368100 0.0 101680
09:00+18св336399 0.0 1017176
12:00+20вюв215439 0.0 1017364
15:00+20ююв225633 0.0 1016242
18:00+20ююв11561 0.0 1015127
21:00+19ссв22650 0.0 101711
17 апреля, сб
сб1700:00+19с235345 0.0 101613
03:00+18ссв334914 0.0 101527
06:00+18ссв3351100 0.0 101526
09:00+21ссв23435 0.0 1017147
12:00+22юв32445 0.0 1016304
15:00+22ююв2245100 0.0 1015198
18:00+22ююв115294 0.0 101575
21:00+20з2253100 0.0 101611
18 апреля, вс
вс1800:00+20всв2250100 0.0 101611
03:00+21ссв3447100 0.0 101521
06:00+20св334994 0.0 101514
09:00+23ссв3442100 0.0 1016124
12:00+24юв224398 0.0 1016297
15:00+23вюв2352100 0.0 1016189
18:00+23всв3449100 0.0 101599
21:00+22ссв4445100 0.0 101516
19 апреля, пн
пн1900:00+22ссв4445100 0.0 101325
03:00+21св5552100 0.0 101247
06:00+21ссв4448100 0.0 101125
09:00+23св3448100 0.0 101170
12:00+23в5659100 0.0 1010182
15:00+22юв2362100 0.0 1008118
18:00+21ю3368100 0.0 100765
21:00+19юз6981100 0.0 1007149